• In Deutschland
  • Länderverzeichnis
  • Für 7 Tage
  • Wassertemperatur
  • Satellitenkarten
  • Wetterkarte
  • Widgets
  • user-avatar
    Anmelden

    Stündliche Wetter Novosretenka

    Heute, 26 September, Mittwoch

    Zeit Temperatur Niederschläge Wind Luftdruck Luftfeuchtigkeit
    00:00 +9°C° 0 mm 1 m/S 696 mmHg 67%
    01:00 +9°C° 0 mm 1 m/S 696 mmHg 67%
    02:00 +9°C° 0 mm 1 m/S 696 mmHg 68%
    03:00 +9°C° 0 mm 1 m/S 696 mmHg 69%
    04:00 +9°C° 0 mm 1 m/S 696 mmHg 70%
    05:00 +9°C° 0 mm 1 m/S 696 mmHg 70%
    06:00 +10°C° 0 mm 1 m/S 696 mmHg 70%
    07:00 +11°C° 0 mm 1 m/S 696 mmHg 68%
    08:00 +13°C° 0 mm 1 m/S 696 mmHg 62%
    09:00 +15°C° 0 mm 1 m/S 696 mmHg 57%
    10:00 +16°C° 0 mm 0 m/S 696 mmHg 51%
    11:00 +19°C° 0 mm 1 m/S 696 mmHg 50%
    12:00 +19°C° 0 mm 1 m/S 696 mmHg 49%
    13:00 +19°C° 0 mm 2 m/S 695 mmHg 48%
    14:00 +18°C° 0.1 mm 3 m/S 695 mmHg 54%
    15:00 +16°C° 0.1 mm 3 m/S 695 mmHg 60%
    16:00 +14°C° 0.1 mm 4 m/S 694 mmHg 67%
    17:00 +12°C° 0.1 mm 4 m/S 694 mmHg 73%
    18:00 +10°C° 0.1 mm 3 m/S 694 mmHg 79%
    19:00 +9°C° 0.1 mm 3 m/S 694 mmHg 85%
    20:00 +8°C° 0.9 mm 3 m/S 694 mmHg 86%
    21:00 +7°C° 0.9 mm 3 m/S 694 mmHg 87%
    22:00 +7°C° 0.9 mm 3 m/S 694 mmHg 89%
    23:00 +7°C° 1.4 mm 3 m/S 695 mmHg 89%

    Morgen, 27 September, Donnerstag

    Zeit Temperatur Niederschläge Wind Luftdruck Luftfeuchtigkeit
    00:00 +6°C° 1.4 mm 2 m/S 695 mmHg 90%
    01:00 +6°C° 1.4 mm 2 m/S 695 mmHg 91%
    02:00 +6°C° 0.5 mm 2 m/S 695 mmHg 90%
    03:00 +5°C° 0.5 mm 3 m/S 696 mmHg 90%
    04:00 +5°C° 0.5 mm 3 m/S 696 mmHg 90%
    05:00 +5°C° 0.2 mm 3 m/S 696 mmHg 89%
    06:00 +4°C° 0.2 mm 4 m/S 696 mmHg 88%
    07:00 +4°C° 0.2 mm 4 m/S 697 mmHg 87%
    08:00 +4°C° 0 mm 4 m/S 697 mmHg 84%
    09:00 +3°C° 0 mm 5 m/S 697 mmHg 81%
    10:00 +3°C° 0 mm 5 m/S 697 mmHg 78%
    11:00 +5°C° 0.1 mm 5 m/S 697 mmHg 75%
    12:00 +5°C° 0.1 mm 5 m/S 697 mmHg 71%
    13:00 +5°C° 0.1 mm 5 m/S 697 mmHg 68%
    14:00 +5°C° 0 mm 5 m/S 697 mmHg 67%
    15:00 +5°C° 0 mm 5 m/S 697 mmHg 66%
    16:00 +5°C° 0 mm 5 m/S 697 mmHg 65%
    17:00 +4°C° 0 mm 4 m/S 697 mmHg 70%
    18:00 +3°C° 0 mm 3 m/S 697 mmHg 74%
    19:00 +2°C° 0 mm 3 m/S 697 mmHg 78%
    20:00 +2°C° 0 mm 2 m/S 697 mmHg 81%
    21:00 +2°C° 0 mm 2 m/S 696 mmHg 84%
    22:00 +1°C° 0 mm 2 m/S 696 mmHg 87%
    23:00 +1°C° 0 mm 2 m/S 696 mmHg 88%

    übermorgen, 28 September, Freitag

    Zeit Temperatur Niederschläge Wind Luftdruck Luftfeuchtigkeit
    00:00 +1°C° 0 mm 2 m/S 696 mmHg 89%
    01:00 +1°C° 0 mm 2 m/S 695 mmHg 89%
    02:00 +1°C° 0 mm 2 m/S 695 mmHg 89%
    03:00 +1°C° 0 mm 2 m/S 695 mmHg 90%
    04:00 -1°C° 0 mm 2 m/S 695 mmHg 90%
    05:00 +1°C° 0 mm 2 m/S 695 mmHg 87%
    06:00 +1°C° 0 mm 2 m/S 695 mmHg 85%
    07:00 +2°C° 0 mm 2 m/S 695 mmHg 82%
    08:00 +2°C° 0 mm 3 m/S 696 mmHg 77%
    09:00 +3°C° 0 mm 4 m/S 696 mmHg 72%
    10:00 +3°C° 0 mm 5 m/S 696 mmHg 67%
    11:00 +5°C° 0.1 mm 5 m/S 697 mmHg 66%
    12:00 +5°C° 0.1 mm 5 m/S 697 mmHg 65%
    13:00 +5°C° 0.1 mm 6 m/S 697 mmHg 64%
    14:00 +5°C° 0.2 mm 5 m/S 698 mmHg 66%
    15:00 +5°C° 0.2 mm 5 m/S 698 mmHg 68%
    16:00 +3°C° 0.2 mm 5 m/S 699 mmHg 70%
    17:00 +3°C° 0.1 mm 4 m/S 699 mmHg 75%
    18:00 +2°C° 0.1 mm 3 m/S 700 mmHg 79%
    19:00 +2°C° 0.1 mm 2 m/S 700 mmHg 83%
    20:00 +2°C° 0 mm 2 m/S 700 mmHg 84%
    21:00 +2°C° 0 mm 2 m/S 701 mmHg 85%
    22:00 +2°C° 0 mm 2 m/S 701 mmHg 85%
    23:00 +2°C° 0 mm 2 m/S 701 mmHg 86%

    29 September, Samstag

    Zeit Temperatur Niederschläge Wind Luftdruck Luftfeuchtigkeit
    00:00 +2°C° 0 mm 2 m/S 701 mmHg 87%
    01:00 +2°C° 0 mm 2 m/S 701 mmHg 88%
    02:00 +2°C° 0.4 mm 2 m/S 701 mmHg 89%
    03:00 +3°C° 0.4 mm 1 m/S 701 mmHg 89%
    04:00 +3°C° 0.4 mm 1 m/S 702 mmHg 89%
    05:00 +3°C° 0.2 mm 1 m/S 702 mmHg 89%
    06:00 +3°C° 0.2 mm 1 m/S 703 mmHg 88%
    07:00 +3°C° 0.2 mm 1 m/S 703 mmHg 87%
    08:00 +4°C° 0 mm 1 m/S 703 mmHg 84%
    09:00 +6°C° 0 mm 1 m/S 703 mmHg 80%
    10:00 +7°C° 0 mm 1 m/S 703 mmHg 77%
    11:00 +8°C° 0 mm 1 m/S 703 mmHg 75%
    12:00 +9°C° 0 mm 1 m/S 703 mmHg 74%
    13:00 +9°C° 0 mm 1 m/S 703 mmHg 72%
    14:00 +9°C° 0 mm 1 m/S 703 mmHg 74%
    15:00 +9°C° 0 mm 1 m/S 703 mmHg 75%
    16:00 +8°C° 0 mm 0 m/S 703 mmHg 77%
    17:00 +8°C° 0 mm 1 m/S 703 mmHg 81%
    18:00 +7°C° 0 mm 1 m/S 704 mmHg 85%
    19:00 +6°C° 0 mm 1 m/S 704 mmHg 90%
    20:00 +5°C° 0 mm 1 m/S 704 mmHg 90%
    21:00 +5°C° 0 mm 1 m/S 704 mmHg 91%
    22:00 +4°C° 0 mm 1 m/S 704 mmHg 92%
    23:00 +4°C° 0 mm 1 m/S 704 mmHg 92%

    30 September, Sonntag

    Zeit Temperatur Niederschläge Wind Luftdruck Luftfeuchtigkeit
    00:00 +3°C° 0 mm 1 m/S 704 mmHg 92%
    01:00 +3°C° 0 mm 1 m/S 704 mmHg 92%
    02:00 +3°C° 0 mm 1 m/S 704 mmHg 92%
    03:00 +2°C° 0 mm 1 m/S 704 mmHg 92%
    04:00 +2°C° 0 mm 1 m/S 704 mmHg 92%
    05:00 +3°C° 0 mm 1 m/S 705 mmHg 90%
    06:00 +3°C° 0 mm 1 m/S 705 mmHg 88%
    07:00 +4°C° 0 mm 1 m/S 705 mmHg 86%
    08:00 +6°C° 0 mm 1 m/S 705 mmHg 79%
    09:00 +8°C° 0 mm 1 m/S 705 mmHg 72%
    10:00 +9°C° 0 mm 2 m/S 704 mmHg 65%
    11:00 +10°C° 0 mm 2 m/S 704 mmHg 62%
    12:00 +12°C° 0 mm 2 m/S 704 mmHg 60%
    13:00 +13°C° 0 mm 2 m/S 703 mmHg 57%
    14:00 +13°C° 0 mm 2 m/S 703 mmHg 58%
    15:00 +13°C° 0 mm 2 m/S 703 mmHg 59%
    16:00 +12°C° 0 mm 1 m/S 703 mmHg 61%
    17:00 +10°C° 0 mm 1 m/S 703 mmHg 67%
    18:00 +8°C° 0 mm 1 m/S 703 mmHg 73%
    19:00 +6°C° 0 mm 1 m/S 703 mmHg 79%
    20:00 +6°C° 0 mm 1 m/S 703 mmHg 80%
    21:00 +6°C° 0 mm 1 m/S 703 mmHg 81%
    22:00 +5°C° 0 mm 1 m/S 703 mmHg 82%
    23:00 +5°C° 0 mm 1 m/S 703 mmHg 82%

    1 Oktober, Montag

    Zeit Temperatur Niederschläge Wind Luftdruck Luftfeuchtigkeit
    00:00 +5°C° 0 mm 1 m/S 703 mmHg 83%
    01:00 +4°C° 0 mm 1 m/S 703 mmHg 84%
    02:00 +4°C° 0 mm 1 m/S 703 mmHg 84%
    03:00 +4°C° 0 mm 1 m/S 703 mmHg 85%
    04:00 +4°C° 0 mm 1 m/S 703 mmHg 85%
    05:00 +4°C° 0 mm 1 m/S 703 mmHg 84%
    06:00 +5°C° 0 mm 1 m/S 703 mmHg 82%
    07:00 +5°C° 0 mm 1 m/S 703 mmHg 81%
    08:00 +8°C° 0 mm 1 m/S 703 mmHg 74%
    09:00 +9°C° 0 mm 2 m/S 703 mmHg 66%
    10:00 +12°C° 0 mm 2 m/S 702 mmHg 59%
    11:00 +13°C° 0 mm 2 m/S 702 mmHg 57%
    12:00 +14°C° 0 mm 2 m/S 702 mmHg 55%
    13:00 +15°C° 0 mm 2 m/S 701 mmHg 52%
    14:00 +15°C° 0 mm 2 m/S 701 mmHg 54%
    15:00 +15°C° 0 mm 2 m/S 701 mmHg 56%
    16:00 +15°C° 0 mm 1 m/S 700 mmHg 58%
    17:00 +13°C° 0 mm 1 m/S 700 mmHg 64%
    18:00 +11°C° 0 mm 1 m/S 700 mmHg 70%
    19:00 +9°C° 0 mm 1 m/S 700 mmHg 76%
    20:00 +8°C° 0 mm 1 m/S 700 mmHg 78%
    21:00 +8°C° 0 mm 1 m/S 700 mmHg 80%
    22:00 +6°C° 0 mm 2 m/S 700 mmHg 81%
    23:00 +6°C° 0 mm 2 m/S 700 mmHg 82%
    Mehr zeigen